Tracking 22455 objects as of 8-Mar-2021
HD Live streaming from Space Station
objects crossing your sky now

THORAD AGENA D DEB

Track THORAD AGENA D DEB now!
10-day predictions


NORAD ID: 4218
Int'l Code: 1969-082CH
Perigee: 710.7 km
Apogee: 769.3 km
Inclination: 70.1 °
Period: 99.5 minutes
Semi major axis: 7110 km
RCS: 0.0624 m2 (small)
Launch date: September 30, 1969
Source: United States (US)
Launch site: AIR FORCE WESTERN TEST RANGE (AFWTR)

Note: This is SATELLITE DEBRIS
aabbcc
Your satellite tracking list
Your tracking list is empty




NASA's NSSDC Master Catalog

Two Line Element Set (TLE):
1 04218U 69082CH  21067.39355931  .00000323  00000-0  10285-3 0  9991
2 04218  70.1015  45.5377 0041176 204.0017 155.9198 14.47798238679019
Source of the keplerian elements: AFSPC